NOAA 16 DEB, 41079

Orbit data source: Space-Track

NOAA 16 DEB, 41079 is space debris in SSO originally from a launch on Thu, 21 Sep 2000 UTC launched from the Air Force Western Test Range (AFWTR). Debris objects in space refer to the collection of defunct objects orbiting the Earth. Examples of debris include non-operational satellites, rocket bodies, and fragments generated from explosions, collisions, or faulty payload assembly.

Loading next visibility...
Identifier
41079, 2000-055AN
Orbit
SSO
Country
Flag of USUS
Related business
Manufacturer
Unknown
Mission
Spacecraft
Bus & Motor
Unknown
Mass
Unknown
Launch date (UTC)
2000-09-21 (25 years ago)
Launch vehicle
Unknown
Launch site
Air Force Western Test Range (AFWTR)
Object type
Payload
Rocket body
Debris
Shape & HBR
Unknown
Radar Cross Section
Small (<0.1 m²)

Expand to show TLE details & history
Last TLE update: 21 hours ago

TLE from 21 hours ago
0 NOAA 16 DEB
1 41079U 00055AN  25245.77870113  .00001020  00000-0  88376-3 0  9991
2 41079  99.0794 192.0364 0144895  78.6338 283.1055 13.83812780492709
Epoch: 2025-09-02T18:41Z
TLE epoch observation values (Epoch: 2025-09-02T18:41:19.777Z)
Latitude
-0.00008°
Longitude
-70.46104°
Altitude
930.633 km
Speed
7.398 km/s
True Right ascension
12h 48m 08s
True Declination
0° 00' 00"
Sunlit
Object was in daylight at epoch
Visualization orbit readout
Latitude
Unknown
Longitude
Unknown
Altitude
Unknown
Speed
Unknown
Apparent Right ascension
Unknown
Apparent Declination
Unknown
Sunlit
N/A
Visualization observer readout
Local Sidereal Time
07:22:35
Azimuth
Unknown
Elevation
Unknown
Doppler factor
Unknown
Orbital elements
Apogee altitude
1,053.765 km
Perigee altitude
841.472 km
Semi-major axis
7,325.755 km
Eccentricity
0.01449
Inclination
99.0794°
RAAN
192.0364°
Arg. of periapsis
78.6338°
True anomaly
281.48192°
Mean anomaly
283.1055°
Eccentric anomaly
282.29435°
Mean motion
3.4615 °/min
Orbital period
104 mins
BSTAR
0.00088376
Loading maneuver chart data...
Computing Atmospheric mass density...
Loading historical data...
Loading historical data...
Loading historical data...
Loading historical data...
Loading historical data...
Loading historical data...
Loading historical data...

Documentation

Showing up to 5 results
|